[[{"header":{"parameterUnit":"m.s-1","parameterCategory":1,"la1":30.2991,"la2":30.254,"lo1":-89.0895,"lo2":-89.0444,"dy":0.0017,"dx":0.0017,"nx":28,"ny":28,"refTime":"2024-10-04T09:00:00:Z","depth":0,"parameterNumber":2,"parameterNumberName":"U-component_of_WINDS"},"data":[0,0,0,0,0,0,0,0,0,0,0,0,0,0,0,0,0,0,0,0,0,0,0,0,0,0,0,0,0,0,0,0,0,0,0,0,0,0,0,0,0,0,0,0,0,0,0,0,0,0,0,0,0,0,0,0,0,0,-4.7821,-4.7822,0,-4.789,-4.789,-4.7891,-4.7771,-4.7767,-4.7763,-4.7759,-4.783,-4.7836,-4.7842,0,0,0,0,0,0,0,0,0,0,0,0,0,-4.7588,-4.7592,-4.7821,-4.7822,-4.7823,-4.7889,-4.789,-4.7891,-4.7772,-4.7767,-4.7762,-4.7758,-4.7829,-4.7835,-4.7842,0,0,0,0,0,0,0,0,0,0,0,0,0,-4.7676,-4.7594,-4.7821,-4.7771,-4.7767,-4.7889,-4.789,-4.7892,-4.7773,-4.7767,-4.7761,-4.7755,-4.7826,-4.7835,-4.7843,-4.8017,0,0,-4.7869,-4.7873,0,0,0,0,0,0,0,0,-4.7671,-4.7685,-4.7778,-4.7775,-4.7771,-4.7816,-4.7834,-4.7934,-4.7775,-4.7771,-4.7759,-4.7752,-4.7831,-4.7838,-4.7864,-4.802,-4.8023,-4.787,-4.7875,-4.7878,-4.7881,0,0,0,0,0,0,0,-4.7665,-4.7681,-4.7848,-4.7779,-4.7775,-4.7746,-4.7752,-4.7852,-4.7834,-4.7771,-4.7762,-4.7772,-4.7827,-4.7857,-4.7865,-4.8024,-4.7869,-4.7877,-4.7882,-4.7886,-4.8326,-4.8333,0,0,0,0,0,0,-4.7665,-4.7677,-4.7846,-4.785,-4.7705,-4.7755,-4.7761,-4.7807,-4.7832,-4.783,-4.7777,-4.7766,-4.7845,-4.7855,-4.7867,-4.8073,-4.7878,-4.7886,-4.7891,-4.832,-4.8328,-4.8335,0,0,0,0,0,0,-4.7661,-4.7681,-4.7843,-4.7761,-4.778,-4.7765,-4.7818,-4.7812,-4.7841,-4.7837,-4.7833,-4.781,-4.7841,-4.7855,-4.7981,-4.8074,-4.789,-4.7898,-4.8312,-4.8322,-4.8331,-4.8486,0,0,0,0,0,0,-4.7654,-4.768,-4.7746,-4.7764,-4.7784,-4.7956,-4.7824,-4.7818,-4.7856,-4.7842,-4.7867,-4.7866,-4.7837,-4.7969,-4.7989,-4.8082,-4.7905,-4.8304,-4.8317,-4.8328,-4.8473,-4.85,-4.8523,0,0,0,0,0,-4.7646,-4.7787,-4.775,-4.7771,-4.7866,-4.7961,-4.7973,-4.7937,-4.7864,-4.793,-4.7928,-4.7865,-4.806,-4.7982,-4.8004,-4.8102,-4.8298,-4.8313,-4.8327,-4.8461,-4.8495,-4.8523,0,0,0,0,0,0,-4.7781,-4.7788,-4.7747,-4.7898,-4.793,-4.7941,-4.8023,-4.7974,-4.8027,-4.8012,-4.7965,-4.7972,-4.8108,-4.8116,-4.803,-4.8271,-4.8167,-4.8187,-4.8261,-4.8293,-4.8318,-4.8313,-4.7912,0,0,0,0,0,-4.7828,-4.7904,-4.7906,-4.8039,-4.8057,-4.8038,-4.8078,-4.8047,-4.8079,-4.8092,-4.8098,-4.8132,-4.82,-4.8246,-4.8309,-4.8473,-4.8477,-4.855,-4.8576,-4.8597,-4.8615,-4.8703,-4.8736,-4.8384,-4.8384,-4.8384,0,0,-4.7926,-4.7939,-4.799,-4.8066,-4.8087,-4.8168,-4.805,-4.814,-4.8199,-4.8105,-4.8224,-4.8231,-4.8264,-4.841,-4.8474,-4.8422,-4.8713,-4.8616,-4.8633,-4.864,-4.8722,-4.8756,-4.8785,-4.8394,-4.8392,-4.8391,0,0,-4.8146,-4.8164,-4.8276,-4.83,-4.8334,-4.832,-4.8347,-4.8366,-4.8367,-4.8485,-4.8417,-4.8487,-4.8606,-4.8633,-4.8663,-4.8894,-4.8839,-4.8916,-4.9049,-4.9136,-4.9164,-4.9188,-4.9272,-4.9302,-4.8934,-4.8934,-4.8934,0,-4.8264,-4.8382,-4.834,-4.8436,-4.8471,-4.839,-4.8504,-4.8529,-4.8582,-4.8609,-4.8549,-4.8697,-4.8714,-4.8865,-4.8922,-4.8948,-4.8978,-4.8913,-4.9163,-4.9187,-4.9209,-4.9289,-4.932,-4.8943,-4.8942,-4.8941,-4.894,0,-4.8526,-4.861,-4.8696,-4.875,-4.8795,-4.8899,-4.8874,-4.8925,-4.889,-4.8883,-4.9005,-4.9023,-4.9088,-4.9122,-4.9089,-4.9269,-4.9236,-4.917,-4.9064,-4.9253,-4.9327,-4.9357,-4.8956,-4.8953,-4.895,-4.8948,0,0,-4.8834,-4.8863,-4.8895,-4.8919,-4.895,-4.9014,-4.9115,-4.9179,-4.9224,-4.9263,-4.9347,-4.945,-4.939,-4.9424,-4.9393,-4.9469,-4.9653,-4.9394,-4.9394,-4.9443,-4.9854,-4.9904,-4.994,-4.9616,-4.9621,-4.9626,-4.9851,0,-4.9054,-4.9227,-4.9193,-4.9363,-4.944,-4.9363,-4.9451,-4.948,-4.9476,-4.9541,-4.9536,-4.9611,-4.9525,-4.9545,-4.9617,-4.9616,-4.9735,-4.9598,-4.9695,-4.9699,-4.969,-4.9978,-5.0031,-5.0243,-4.988,-4.9885,-4.9888,0,-4.9333,-4.9383,-4.9562,-4.9581,-4.9612,-4.9692,-4.9748,-4.9811,-4.9843,-4.9834,-4.9873,-4.9828,-4.9929,-4.9821,-4.9959,-4.9868,-4.9905,-4.991,-4.9917,-4.9926,-4.9806,-4.9996,-5.0309,-5.0342,-4.9933,-4.9929,-4.9926,0,-4.9542,-4.9653,-4.9774,-4.9797,-4.9822,-4.988,-4.9894,-4.9919,-4.996,-5.001,-5.0036,-5.0096,-5.013,-5.0178,-5.0151,-5.0075,-5.0296,-5.0185,-5.0293,-5.0294,-5.0344,-5.0341,-5.0669,-5.0366,-5.0365,-5.0365,-5.0364,0,-4.9791,-4.9904,-4.9868,-4.9943,-5.0067,-5.0026,-5.015,-5.0154,-5.0178,-5.0252,-5.0189,-5.0261,-5.022,-5.0289,-5.0269,-5.0388,-5.0403,-5.04,-5.0393,-5.0406,-5.0407,-5.0431,-5.0416,-5.0373,-5.0371,-5.0369,-5.0368,0,-5.0045,-5.0026,-5.0153,-5.0167,-5.0173,-5.0264,-5.0276,-5.0346,-5.0337,-5.0433,-5.0453,-5.0439,-5.0517,-5.0495,-5.0579,-5.0565,-5.0716,-5.069,-5.0706,-5.07,-5.0809,-5.08,-5.1165,-5.1212,-5.0877,-5.088,-5.0883,0,-5.0207,-5.0291,-5.0315,-5.036,-5.0378,-5.0452,-5.0494,-5.0457,-5.0503,-5.0546,-5.0611,-5.0683,-5.0739,-5.0866,-5.0865,-5.0929,-5.0905,-5.1028,-5.0914,-5.0925,-5.0908,-5.0904,-5.0913,-5.1052,-5.1055,-5.1058,-5.1061,0,-5.0496,-5.0482,-5.0544,-5.0604,-5.0656,-5.0701,-5.074,-5.0781,-5.0747,-5.0802,-5.088,-5.0924,-5.101,-5.1083,-5.1141,-5.1155,-5.1104,-5.1097,-5.1125,-5.114,-5.1147,-5.1146,-5.0769,-5.1089,-5.1086,-5.1084,-5.1083,-5.1081,-5.0709,-5.0781,-5.0809,-5.0881,-5.0907,-5.0945,-5.1012,-5.1012,-5.1076,-5.1144,-5.1117,-5.1208,-5.1238,-5.1312,-5.1333,-5.1404,-5.1357,-5.1398,-5.1409,-5.142,-5.1435,-5.1134,-5.1415,-5.1414,-5.1413,-5.1412,-5.1412,0,-5.0996,-5.101,-5.1077,-5.1134,-5.1191,-5.1136,-5.1177,-5.1229,-5.1309,-5.1341,-5.1398,-5.1489,-5.1559,-5.1563,-5.1629,-5.1685,-5.1663,-5.1704,-5.17,-5.1704,-5.1472,-5.1441,-5.172,-5.172,-5.172,-5.172,-5.172,-5.172,-5.1152,-5.1272,-5.1262,-5.1393,-5.1406,-5.1495,-5.1523,-5.1559,-5.1584,-5.1689,-5.1747,-5.1749,-5.177,-5.1837,-5.19,-5.1899,-5.1927,-5.1977,-5.1968,-5.1751,-5.172,-5.1691,-5.1662,-5.1983,-5.1984,-5.2194,-5.2196,-5.2198]},{"header":{"parameterUnit":"m.s-1","parameterCategory":1,"la1":30.2991,"la2":30.254,"lo1":-89.0895,"lo2":-89.0444,"dy":0.0017,"dx":0.0017,"nx":28,"ny":28,"refTime":"2024-10-04T09:00:00:Z","depth":0,"parameterNumber":3,"parameterNumberName":"V-component_of_WINDS"},"data":[0,0,0,0,0,0,0,0,0,0,0,0,0,0,0,0,0,0,0,0,0,0,0,0,0,0,0,0,0,0,0,0,0,0,0,0,0,0,0,0,0,0,0,0,0,0,0,0,0,0,0,0,0,0,0,0,0,0,-2.772,-2.772,0,-2.7694,-2.7694,-2.7693,-2.7638,-2.7637,-2.7636,-2.7635,-2.7609,-2.7609,-2.7609,0,0,0,0,0,0,0,0,0,0,0,0,0,-2.7721,-2.7721,-2.772,-2.772,-2.7719,-2.7694,-2.7694,-2.7693,-2.7638,-2.7637,-2.7636,-2.7634,-2.7609,-2.7609,-2.7609,0,0,0,0,0,0,0,0,0,0,0,0,0,-2.771,-2.7721,-2.772,-2.7689,-2.7686,-2.7694,-2.7694,-2.7693,-2.7639,-2.7637,-2.7635,-2.7634,-2.7608,-2.7609,-2.7609,-2.7646,0,0,-2.7611,-2.7611,0,0,0,0,0,0,0,0,-2.7711,-2.771,-2.7694,-2.7691,-2.7687,-2.7668,-2.7684,-2.7678,-2.7639,-2.7657,-2.7635,-2.7633,-2.763,-2.7628,-2.7627,-2.7645,-2.7644,-2.7611,-2.7611,-2.7612,-2.7612,0,0,0,0,0,0,0,-2.7712,-2.7711,-2.771,-2.7693,-2.769,-2.7676,-2.7672,-2.7683,-2.7653,-2.7655,-2.7651,-2.7648,-2.7628,-2.7627,-2.7626,-2.7644,-2.7611,-2.7612,-2.7612,-2.7612,-2.7688,-2.769,0,0,0,0,0,0,-2.7717,-2.7712,-2.771,-2.7709,-2.7695,-2.7677,-2.7673,-2.7676,-2.7653,-2.7647,-2.765,-2.7646,-2.7627,-2.7626,-2.7625,-2.7665,-2.7612,-2.7612,-2.7612,-2.7686,-2.7688,-2.769,0,0,0,0,0,0,-2.7717,-2.7717,-2.7711,-2.7709,-2.7707,-2.7679,-2.7682,-2.7676,-2.7675,-2.7649,-2.7643,-2.7655,-2.7625,-2.7624,-2.7641,-2.7663,-2.7612,-2.7613,-2.7684,-2.7687,-2.7689,-2.7746,0,0,0,0,0,0,-2.7717,-2.7718,-2.7732,-2.771,-2.7708,-2.7728,-2.7683,-2.7677,-2.7676,-2.7671,-2.7652,-2.7647,-2.7624,-2.764,-2.7641,-2.7663,-2.7613,-2.7682,-2.7685,-2.7688,-2.7742,-2.7751,-2.7758,0,0,0,0,0,-2.7718,-2.7749,-2.7733,-2.7733,-2.7725,-2.773,-2.7728,-2.7701,-2.7678,-2.7692,-2.7674,-2.7648,-2.7661,-2.7643,-2.7643,-2.7666,-2.7681,-2.7684,-2.7688,-2.7739,-2.7749,-2.7757,0,0,0,0,0,0,-2.7775,-2.7746,-2.7727,-2.7753,-2.7744,-2.772,-2.7737,-2.7713,-2.7711,-2.7706,-2.7672,-2.7668,-2.7689,-2.7679,-2.7659,-2.7699,-2.7666,-2.767,-2.7705,-2.7714,-2.7721,-2.7723,-2.7614,0,0,0,0,0,-2.7791,-2.7797,-2.7771,-2.7797,-2.7793,-2.7766,-2.7767,-2.7747,-2.7736,-2.7732,-2.7716,-2.7707,-2.7709,-2.7711,-2.7711,-2.7741,-2.7735,-2.7756,-2.7764,-2.777,-2.7774,-2.7787,-2.7796,-2.7703,-2.7703,-2.7703,0,0,-2.7823,-2.7808,-2.7814,-2.7808,-2.7799,-2.7805,-2.7763,-2.7773,-2.7777,-2.7734,-2.7748,-2.7736,-2.7723,-2.7746,-2.7755,-2.7738,-2.7798,-2.7775,-2.778,-2.7781,-2.7792,-2.78,-2.7808,-2.7705,-2.7705,-2.7704,0,0,-2.7886,-2.7876,-2.7894,-2.7886,-2.7872,-2.7853,-2.7858,-2.7837,-2.7827,-2.7841,-2.7808,-2.7813,-2.7817,-2.7809,-2.7805,-2.7863,-2.7838,-2.7864,-2.7904,-2.7917,-2.7924,-2.793,-2.7949,-2.7957,-2.7868,-2.7868,-2.7868,0,-2.7928,-2.7937,-2.7907,-2.7918,-2.7916,-2.7876,-2.7894,-2.7887,-2.7875,-2.7874,-2.7855,-2.7858,-2.7847,-2.7866,-2.788,-2.7879,-2.7882,-2.7866,-2.7925,-2.7931,-2.7937,-2.7955,-2.7962,-2.7872,-2.7871,-2.7871,-2.7871,0,-2.7989,-2.7995,-2.8012,-2.8,-2.8,-2.8015,-2.7986,-2.7989,-2.7969,-2.7952,-2.7965,-2.795,-2.7946,-2.7949,-2.793,-2.7966,-2.7955,-2.7932,-2.7898,-2.7949,-2.7965,-2.7972,-2.7876,-2.7875,-2.7874,-2.7873,0,0,-2.8087,-2.8057,-2.8064,-2.8057,-2.8038,-2.8043,-2.8055,-2.805,-2.8053,-2.8045,-2.8054,-2.8058,-2.8035,-2.8031,-2.801,-2.8022,-2.8067,-2.7997,-2.7996,-2.8009,-2.8103,-2.812,-2.8129,-2.805,-2.8051,-2.8052,-2.8104,0,-2.8144,-2.8164,-2.8136,-2.8162,-2.8167,-2.8128,-2.8139,-2.8128,-2.8113,-2.8114,-2.8097,-2.81,-2.807,-2.8067,-2.8077,-2.8059,-2.8085,-2.8055,-2.8057,-2.8057,-2.806,-2.8137,-2.8156,-2.8205,-2.811,-2.8111,-2.8112,0,-2.8214,-2.8208,-2.8234,-2.8212,-2.8213,-2.8223,-2.8216,-2.8218,-2.8205,-2.8192,-2.8187,-2.8162,-2.8172,-2.814,-2.8152,-2.8133,-2.8131,-2.8123,-2.8124,-2.8122,-2.8087,-2.8137,-2.8221,-2.8228,-2.8122,-2.8121,-2.812,0,-2.8281,-2.828,-2.8295,-2.8291,-2.8266,-2.8273,-2.8263,-2.8248,-2.8247,-2.824,-2.8239,-2.8234,-2.8231,-2.8228,-2.8201,-2.8181,-2.8216,-2.8183,-2.8206,-2.8206,-2.8214,-2.8214,-2.8298,-2.8216,-2.8216,-2.8215,-2.8215,0,-2.8347,-2.8364,-2.8325,-2.8334,-2.8351,-2.8319,-2.8337,-2.8323,-2.831,-2.8315,-2.8282,-2.8287,-2.8253,-2.8254,-2.8234,-2.8246,-2.8246,-2.8235,-2.8229,-2.8237,-2.8239,-2.8236,-2.8231,-2.8217,-2.8217,-2.8217,-2.8216,0,-2.8425,-2.84,-2.8413,-2.8388,-2.8382,-2.8395,-2.8374,-2.8381,-2.8362,-2.8369,-2.8369,-2.834,-2.834,-2.8313,-2.8308,-2.8294,-2.8315,-2.8303,-2.8319,-2.8315,-2.8339,-2.8337,-2.8424,-2.8433,-2.8346,-2.8347,-2.8347,0,-2.8469,-2.848,-2.8456,-2.8457,-2.8448,-2.845,-2.8448,-2.8417,-2.8416,-2.8401,-2.8409,-2.8406,-2.8402,-2.8404,-2.8382,-2.8377,-2.8365,-2.8395,-2.8364,-2.8371,-2.8363,-2.8363,-2.8363,-2.8402,-2.8403,-2.8404,-2.8405,0,-2.8548,-2.8534,-2.8532,-2.8526,-2.8524,-2.8517,-2.8509,-2.8511,-2.8477,-2.8477,-2.8476,-2.8473,-2.8467,-2.8464,-2.8455,-2.8444,-2.8418,-2.8415,-2.8419,-2.8428,-2.8436,-2.843,-2.8336,-2.8413,-2.8412,-2.8411,-2.8411,-2.8411,-2.8609,-2.8617,-2.86,-2.8599,-2.8589,-2.8581,-2.8586,-2.8568,-2.8566,-2.8559,-2.854,-2.8542,-2.8527,-2.8512,-2.8503,-2.8504,-2.8488,-2.8496,-2.8497,-2.8499,-2.8503,-2.8436,-2.8502,-2.8502,-2.8502,-2.8501,-2.8501,0,-2.8685,-2.8672,-2.8671,-2.8659,-2.8658,-2.8634,-2.8622,-2.8623,-2.8625,-2.8613,-2.8609,-2.8607,-2.8603,-2.8581,-2.8575,-2.858,-2.8568,-2.8579,-2.8578,-2.8575,-2.8518,-2.8514,-2.8589,-2.8589,-2.8589,-2.8589,-2.8589,-2.8589,-2.8724,-2.8736,-2.872,-2.8726,-2.8713,-2.8714,-2.871,-2.8702,-2.8692,-2.8691,-2.8688,-2.8674,-2.8657,-2.8649,-2.8645,-2.8638,-2.8637,-2.8652,-2.8642,-2.8588,-2.858,-2.8572,-2.8567,-2.8652,-2.8652,-2.8698,-2.8699,-2.8699]}]]